Location: Gradaro
(45.0833°N, 10.8833°E)
Time: 15:14:11
(UTC+00:00)

PSLV R/B - Pass Details

Date: 29 November 2020
Orbit: 503 x 578 km, 97.8° (Epoch: 24 January)

Event Time Altitude Azimuth Distance (km) Brightness Sun altitude
Rises 05:31:58 0° 7° (N) 2,713 7.2 -10.5°
Reaches altitude 10° 05:34:10 10° 2° (N) 1,803 6.3 -10.2°
Maximum altitude 05:37:54 47° 288° (WNW) 704 3.9 -9.5°
Drops below altitude 10° 05:41:32 10° 214° (SW) 1,748 6.3 -8.9°
Sets 05:43:38 0° 208° (SSW) 2,620 7.2 -8.6°
